Location: InfinitysEdge Observatory-CO
(38.9680°N, 105.5179°W)
Time: 07:10:26
(UTC-06:00)

Hubble Space Telescope - Visible Passes

Search period start: 17 October 2017 00:00
Search period end: 27 October 2017 00:00
Orbit: 537 x 541 km, 28.5° (Epoch: 16 October)

Date Brightness Start Highest point End Pass type
(mag) Time Alt. Az. Time Alt. Az. Time Alt. Az.
20 Oct 3.2 20:03:38 10° S 20:04:35 12° S 20:04:35 12° S visible
21 Oct 2.9 19:52:53 10° SSW 19:55:02 14° SSE 19:55:02 14° SSE visible
22 Oct 2.8 19:42:17 10° SSW 19:44:48 16° S 19:45:28 15° SSE visible
23 Oct 2.7 19:31:48 10° SSW 19:34:30 17° S 19:35:52 15° SSE visible
24 Oct 2.8 19:21:22 10° SW 19:24:12 18° S 19:26:15 13° SE visible
25 Oct 2.8 19:11:01 10° SW 19:13:55 19° S 19:16:38 11° SE visible
25 Oct 3.8 20:51:59 10° SW 20:51:59 10° SW 20:51:59 10° SW visible
26 Oct 2.8 19:00:42 10° SW 19:03:38 19° S 19:06:33 10° SE visible
26 Oct 3.6 20:41:59 10° SW 20:42:25 11° SW 20:42:25 11° SW visible
